Probability
0 0 0 0 0 0 0 0 0 0 0 0 0 0 0 0 0 0 0 0 0 0 0 0 0 0 0 3 3 3 3 3 3 0 0 0 0 0 0 0 0 0 0 0
0 0 0 0 0 0 0 0 0 0 0 0 0 0 0 0 0 0 0 0 0 0 0 0 0 0 0 0 0 0 0 0 0 0 0 0 0 0 0 0 0 0 0 0
0 0 0 0 0 0 0 0 0 0 0 0 0 0 0 0 0 0 0 0 3 0 0 0 0 0 0 0 0 0 0 0 0 0 0 0 0 0 0 0 0 0 0 0
0 0 0 0 0 0 0 0 0 0 0 0 0 0 0 0 0 0 0 0 0 3 0 0 0 0 0 0 0 0 0 0 0 0 0 0 0 0 0 0 0 0 0 0
0 0 0 0 0 0 0 0 0 0 0 0 0 0 0 0 0 0 0 0 0 0 0 0 0 0 0 0 0 0 0 0 0 0 0 0 0 0 0 0 0 0 0 0
0 0 0 0 0 0 0 0 0 0 0 0 0 0 0 0 0 0 0 0 0 0 0 0 0 0 0 0 0 0 0 0 0 0 0 0 0 0 0 0 0 0 0 0
0 0 0 0 0 0 0 0 0 0 0 0 0 0 0 0 0 0 0 0 0 0 0 0 0 0 0 0 0 0 0 0 0 0 0 0 0 0 0 0 0 0 0 0
0 0 0 0 0 0 0 0 0 0 0 0 0 0 0 0 0 0 0 0 0 0 0 0 0 0 0 0 0 0 0 0 0 0 0 0 0 0 0 0 0 0 0 0
0 0 0 0 0 0 0 0 0 0 0 0 0 0 0 0 0 0 0 0 0 0 0 0 0 0 0 0 0 0 0 0 0 0 0 0 0 0 0 0 0 0 0 0
0 0 0 0 0 0 0 0 0 0 0 0 0 0 0 0 0 0 0 0 0 0 0 0 0 0 0 0 0 0 0 0 0 0 0 0 0 0 0 0 0 0 0 0
0 0 0 0 0 0 0 0 0 0 0 0 0 0 0 0 0 0 0 0 0 0 0 0 0 0 0 0 0 0 0 0 0 0 0 0 0 0 0 0 0 0 0 0
0 0 0 0 0 0 0 0 0 0 0 0 0 0 0 0 0 0 0 0 0 0 0 0 0 0 0 0 0 0 0 0 0 0 0 0 0 0 0 0 0 0 0 0
0 0 0 0 0 0 0 0 0 0 0 0 0 0 0 0 0 0 0 0 0 0 0 0 0 0 0 0 0 0 0 0 0 0 0 0 0 0 0 0 0 0 0 0
0 0 0 0 0 0 0 0 0 0 0 0 0 0 0 0 0 0 0 0 0 0 0 0 0 0 0 0 0 0 0 0 0 0 0 0 0 0 0 0 0 0 0 0
0 0 0 0 0 0 0 0 0 0 0 0 0 0 0 0 0 0 0 0 0 0 0 0 0 0 0 0 0 0 0 0 0 0 0 0 0 0 0 0 0 0 0 0
0 0 0 0 0 0 0 0 0 0 0 0 0 0 0 0 0 0 0 0 0 0 0 0 0 0 0 0 0 0 0 0 0 0 0 0 0 0 0 0 0 0 0 0
0 0 0 0 0 0 0 0 0 0 0 0 0 0 0 0 0 0 0 0 0 0 0 0 0 0 0 0 0 0 0 0 0 0 0 0 0 0 0 0 0 0 0 0
0 0 0 0 0 0 0 0 0 0 0 0 0 0 0 0 0 0 0 0 0 0 0 0 0 0 0 0 0 0 0 0 0 0 0 0 0 0 0 0 0 0 0 0
0 0 0 0 0 0 0 0 0 0 0 0 0 0 0 0 0 0 0 0 0 0 0 0 0 0 0 0 0 0 0 0 0 0 0 0 0 0 0 0 0 0 0 0
0 0 0 0 0 0 0 0 0 0 0 0 0 0 0 0 0 0 0 0 0 0 0 0 0 0 0 0 0 0 0 0 0 0 0 0 0 0 0 0 0 0 0 0
0 0 0 0 0 0 0 0 0 0 0 0 0 0 0 0 0 0 0 0 0 0 0 0 0 0 0 0 0 0 0 0 0 0 0 0 0 0 0 0 0 0 0 0
0 0 0 0 0 0 0 0 0 0 0 0 0 0 0 0 0 0 0 0 0 0 0 0 0 0 0 0 0 0 0 0 0 0 0 0 0 0 0 0 0 0 0 0
0 0 0 0 0 0 0 0 0 0 0 0 0 0 0 0 0 0 0 0 0 0 0 0 0 0 0 0 0 0 0 0 0 0 0 0 0 0 0 0 0 0 0 0
0 0 0 0 0 0 0 0 0 0 0 0 0 0 0 0 0 0 0 0 0 0 0 0 0 0 0 0 0 0 0 0 0 0 0 0 0 0 0 0 0 0 0 0
0 0 0 0 0 0 0 0 0 0 0 0 0 0 0 0 0 0 0 0 0 0 0 0 0 0 0 0 0 0 0 0 0 0 0 0 0 0 0 0 0 0 0 0
0 0 0 0 0 0 0 0 0 0 0 0 0 0 0 0 0 0 0 0 0 0 0 0 0 0 0 0 0 0 0 0 0 0 0 0 0 0 0 0 0 0 0 0
0 0 0 0 0 0 0 0 0 0 0 0 0 0 0 0 0 0 0 0 0 0 0 0 0 0 0 0 0 0 0 0 0 0 0 0 0 0 0 0 0 0 0 0
Height
5811 5812 5812 5812 5813 5813 5812 5812 5812 5812 5811 5811 5810 5809 5809 5808 5807 5806 5805 5804 5803 5801 5800 5798 5796 5794 5791 5789 5787 5785 5782 5780 5777 5775 5772 5770 5768 5767 5765 5764 5762 5761 5760 5758
5805 5806 5806 5807 5807 5807 5807 5807 5806 5806 5806 5805 5804 5803 5802 5802 5801 5800 5799 5798 5796 5795 5793 5792 5790 5787 5785 5783 5780 5778 5775 5773 5770 5767 5765 5763 5761 5759 5758 5756 5755 5754 5752 5751
5800 5800 5800 5801 5802 5801 5801 5801 5801 5800 5800 5799 5798 5797 5796 5796 5795 5793 5792 5791 5790 5788 5787 5785 5783 5781 5778 5775 5773 5770 5767 5765 5762 5760 5757 5755 5753 5751 5750 5749 5747 5746 5745 5743
5794 5795 5794 5798 5795 5795 5795 5795 5794 5794 5793 5792 5792 5791 5790 5789 5788 5787 5786 5784 5783 5781 5779 5777 5775 5773 5770 5768 5765 5762 5760 5757 5754 5752 5749 5747 5745 5743 5742 5740 5739 5738 5737 5736
5787 5787 5788 5790 5789 5789 5788 5788 5788 5788 5787 5786 5785 5784 5783 5782 5781 5780 5779 5777 5776 5774 5772 5770 5768 5765 5762 5760 5757 5754 5752 5749 5746 5743 5741 5739 5737 5735 5733 5732 5731 5730 5729 5727
5780 5780 5781 5784 5783 5782 5782 5781 5782 5781 5780 5779 5778 5777 5777 5775 5774 5773 5771 5770 5768 5766 5764 5762 5760 5757 5755 5752 5749 5746 5743 5741 5738 5735 5733 5730 5728 5726 5724 5723 5722 5721 5720 5718
5773 5773 5774 5776 5776 5775 5776 5776 5775 5774 5773 5772 5771 5771 5770 5768 5766 5765 5764 5762 5761 5759 5757 5755 5752 5749 5747 5744 5741 5738 5735 5732 5729 5727 5724 5722 5720 5718 5716 5714 5712 5711 5710 5709
5766 5767 5769 5768 5768 5768 5768 5767 5767 5766 5766 5765 5764 5763 5762 5761 5759 5757 5756 5754 5752 5750 5748 5746 5744 5741 5738 5735 5732 5729 5726 5724 5721 5718 5716 5714 5711 5709 5707 5705 5703 5702 5700 5699
5760 5762 5761 5761 5760 5760 5760 5760 5759 5759 5758 5758 5757 5755 5754 5753 5751 5750 5748 5746 5744 5742 5740 5737 5735 5732 5730 5727 5723 5720 5718 5715 5713 5710 5708 5705 5703 5701 5699 5696 5694 5693 5691 5690
5752 5753 5753 5753 5753 5752 5752 5752 5751 5751 5750 5750 5749 5747 5746 5744 5743 5741 5740 5738 5736 5733 5731 5728 5726 5723 5720 5717 5714 5711 5708 5706 5704 5701 5699 5697 5694 5692 5690 5688 5686 5684 5682 5680
5744 5745 5745 5745 5745 5745 5744 5744 5744 5743 5742 5741 5740 5739 5738 5736 5735 5733 5732 5730 5727 5725 5722 5720 5717 5714 5710 5707 5705 5702 5699 5697 5695 5692 5690 5688 5685 5683 5681 5679 5677 5675 5673 5671
5737 5737 5736 5737 5736 5736 5736 5735 5735 5734 5733 5732 5731 5730 5729 5727 5726 5724 5722 5720 5718 5716 5713 5711 5708 5705 5702 5699 5696 5693 5690 5688 5685 5683 5681 5679 5677 5674 5672 5670 5668 5665 5663 5662
5728 5728 5728 5728 5728 5727 5726 5726 5726 5725 5724 5723 5722 5721 5719 5718 5717 5715 5713 5711 5709 5707 5704 5701 5699 5696 5693 5690 5687 5684 5681 5679 5677 5674 5672 5670 5667 5665 5663 5661 5658 5656 5654 5652
5718 5718 5719 5719 5719 5718 5718 5717 5716 5716 5715 5714 5713 5712 5710 5709 5707 5706 5704 5702 5700 5698 5695 5692 5689 5687 5683 5681 5678 5675 5673 5670 5668 5665 5663 5661 5658 5656 5654 5651 5649 5647 5645 5642
5709 5709 5709 5709 5709 5709 5708 5707 5707 5706 5705 5704 5703 5702 5701 5700 5698 5696 5694 5692 5690 5688 5686 5683 5680 5677 5674 5672 5669 5666 5664 5661 5659 5656 5654 5651 5648 5646 5643 5641 5639 5637 5635 5633
5700 5700 5700 5700 5700 5699 5698 5698 5697 5697 5696 5695 5694 5693 5691 5690 5688 5687 5685 5683 5680 5678 5676 5673 5671 5668 5665 5663 5660 5657 5654 5651 5649 5646 5644 5641 5638 5636 5633 5631 5629 5627 5625 5623
5690 5691 5691 5690 5690 5690 5689 5689 5688 5687 5686 5685 5684 5683 5682 5680 5679 5677 5675 5672 5670 5668 5666 5663 5661 5658 5656 5653 5650 5647 5644 5641 5639 5636 5633 5630 5628 5625 5623 5621 5618 5616 5614 5612
5681 5681 5681 5681 5681 5680 5680 5679 5678 5677 5676 5675 5674 5673 5672 5670 5669 5667 5665 5663 5661 5658 5656 5653 5651 5648 5646 5643 5640 5637 5634 5631 5628 5625 5622 5619 5617 5615 5612 5610 5608 5606 5604 5601
5672 5672 5672 5671 5671 5671 5670 5669 5669 5668 5666 5665 5664 5663 5662 5660 5659 5657 5655 5652 5650 5648 5646 5643 5640 5638 5635 5632 5629 5626 5623 5620 5617 5614 5611 5609 5606 5603 5601 5599 5597 5595 5593 5590
5663 5663 5663 5662 5662 5661 5660 5660 5659 5658 5657 5655 5654 5653 5651 5650 5648 5646 5644 5642 5640 5637 5635 5632 5630 5627 5624 5622 5619 5616 5613 5610 5607 5604 5601 5598 5595 5593 5591 5588 5586 5584 5582 5579
5654 5654 5653 5653 5653 5652 5651 5650 5649 5648 5647 5645 5644 5642 5641 5639 5637 5636 5633 5631 5629 5626 5624 5621 5619 5616 5614 5611 5608 5605 5602 5599 5596 5593 5590 5588 5585 5583 5580 5577 5575 5573 5571 5569
5645 5644 5644 5644 5643 5642 5642 5640 5639 5638 5637 5635 5633 5632 5630 5629 5627 5625 5623 5621 5618 5616 5613 5611 5608 5605 5603 5600 5597 5594 5591 5588 5585 5582 5580 5577 5575 5572 5570 5567 5565 5563 5560 5558
5635 5635 5635 5634 5633 5633 5632 5631 5629 5628 5626 5625 5623 5622 5620 5618 5616 5614 5612 5610 5607 5605 5602 5600 5597 5594 5592 5589 5586 5583 5580 5578 5575 5572 5569 5567 5565 5562 5560 5557 5555 5552 5550 5547
5626 5625 5625 5624 5623 5622 5622 5620 5619 5617 5616 5614 5613 5611 5609 5608 5606 5604 5601 5599 5597 5594 5591 5588 5586 5583 5580 5577 5574 5572 5569 5567 5564 5562 5559 5557 5554 5552 5549 5547 5544 5542 5539 5537
5616 5615 5615 5614 5613 5612 5611 5610 5608 5607 5606 5604 5603 5601 5599 5597 5596 5593 5591 5589 5586 5583 5580 5577 5574 5571 5569 5566 5563 5561 5558 5556 5554 5551 5549 5546 5544 5541 5539 5536 5534 5532 5529 5527
5605 5605 5604 5603 5602 5601 5600 5599 5598 5597 5595 5594 5592 5590 5589 5587 5585 5583 5580 5578 5575 5572 5569 5566 5563 5560 5557 5555 5552 5550 5548 5545 5543 5540 5538 5535 5533 5531 5528 5526 5524 5521 5519 5517
5594 5594 5593 5592 5591 5590 5589 5588 5587 5586 5585 5583 5581 5580 5578 5576 5574 5571 5569 5566 5563 5560 5557 5554 5551 5549 5546 5544 5541 5539 5536 5534 5532 5529 5527 5524 5522 5520 5518 5516 5513 5511 5509 5507
Wind_Speed
18 18 18 19 19 19 20 20 20 19 20 19 19 20 20 20 20 20 20 19 19 20 20 21 21 21 22 22 22 23 23 23 24 25 25 25 25 25 25 24 24 24 23 23
19 19 20 20 20 20 20 21 21 21 21 21 22 21 21 21 21 21 21 21 21 21 21 21 22 22 22 23 24 25 25 24 25 25 26 26 26 26 26 26 25 25 25 24
20 20 21 21 21 22 22 21 21 21 20 21 23 23 23 22 21 21 22 22 22 22 23 23 24 24 24 24 25 25 26 26 26 27 27 27 27 27 26 26 26 26 26 26
21 21 22 20 21 22 22 22 21 21 21 22 22 23 23 23 23 23 23 23 23 24 24 24 25 26 26 26 27 27 28 28 28 28 28 28 28 27 27 27 27 28 28 28
22 23 23 22 21 22 22 22 22 21 21 22 23 24 24 24 24 23 23 23 24 24 25 26 26 27 28 28 28 29 29 30 30 30 30 29 28 28 28 29 29 29 29 29
24 23 23 21 21 22 23 23 22 22 22 21 22 23 23 23 24 24 24 25 25 26 26 27 28 28 29 29 29 29 30 30 30 30 30 29 29 29 30 30 30 30 30 30
24 24 23 22 21 22 23 23 22 22 22 22 23 23 24 24 25 25 26 26 27 27 27 28 28 29 29 29 30 30 30 30 29 29 29 29 29 30 30 30 30 30 31 31
23 24 23 22 23 23 23 23 23 23 23 23 24 25 25 25 26 26 26 27 28 28 29 29 29 30 30 30 30 30 30 30 30 29 29 29 29 29 30 30 30 30 30 30
25 24 24 23 23 24 24 25 25 24 24 25 25 25 26 26 26 26 26 26 28 29 29 30 30 30 31 31 31 31 31 31 30 29 29 29 29 29 29 30 30 30 30 30
25 25 25 25 25 25 25 25 25 25 25 26 27 26 27 27 28 27 26 26 27 28 29 30 31 31 32 31 31 31 31 30 30 30 30 30 30 30 30 29 30 30 30 29
25 25 26 26 27 27 26 26 26 27 27 28 28 28 28 28 29 29 29 29 29 29 30 30 31 31 31 31 31 31 30 30 30 31 31 30 30 30 30 30 29 29 29 29
27 27 28 27 27 27 28 28 28 28 28 28 29 29 29 29 30 30 30 30 30 31 31 31 31 31 31 31 31 31 31 30 30 30 30 30 29 29 30 30 30 31 31 31
28 28 28 28 28 28 29 29 30 30 30 30 30 31 30 31 31 31 31 31 31 30 31 31 31 31 31 31 31 30 30 30 30 30 30 30 30 31 31 31 31 32 32 31
30 30 30 30 30 30 30 30 31 31 31 31 31 31 31 31 32 32 33 32 31 31 31 31 31 31 31 30 30 30 30 30 30 30 31 31 32 32 32 32 32 32 32 32
30 30 31 31 31 31 31 31 31 30 30 31 32 32 32 32 32 32 32 32 33 32 31 31 31 31 31 31 30 30 30 31 31 31 32 32 32 33 33 33 33 32 32 32
29 29 29 30 30 30 31 31 31 30 31 31 32 32 32 33 33 33 33 33 33 32 32 32 32 32 31 31 31 31 32 32 32 33 33 33 33 33 33 33 33 32 32 32
28 29 29 29 29 29 29 30 31 31 31 32 32 32 33 33 33 33 34 34 33 32 32 32 32 32 32 33 33 33 33 33 34 34 34 34 34 34 34 34 34 33 33 33
28 28 29 29 30 29 29 30 30 31 31 32 32 33 33 33 33 33 33 33 33 33 33 33 33 33 33 34 34 34 34 34 35 35 35 35 34 35 35 35 34 34 34 34
27 27 28 29 29 29 29 30 31 31 31 32 33 33 33 33 33 33 33 33 33 33 33 34 34 35 34 34 34 34 34 35 35 35 35 35 35 35 34 34 34 34 34 33
27 27 28 28 28 28 29 29 30 31 31 31 32 32 33 33 32 33 34 34 34 34 33 34 34 34 34 34 35 35 35 35 35 35 35 34 34 34 34 33 34 34 34 34
27 27 27 28 28 28 28 29 29 30 30 31 31 32 32 33 33 33 34 34 34 34 33 34 34 34 34 34 35 35 35 35 35 34 34 33 33 33 33 33 33 33 33 33
27 27 27 28 28 28 29 29 29 29 30 30 31 32 32 32 32 33 33 34 34 34 34 34 34 35 35 35 36 36 35 35 34 33 32 32 32 32 32 32 32 32 32 33
28 28 28 29 28 28 29 29 30 30 30 30 31 31 31 31 32 33 33 34 34 34 35 35 35 36 36 36 36 36 35 34 33 32 32 32 32 33 32 32 32 32 32 32
29 29 30 30 30 30 30 30 31 31 30 31 31 31 32 32 33 33 33 33 33 34 35 35 35 35 36 36 35 35 34 33 32 32 31 31 31 32 32 32 32 32 32 31
30 30 31 31 31 32 32 31 31 31 31 31 31 31 31 32 32 32 33 33 34 34 35 35 35 35 35 34 34 33 33 33 32 32 32 31 32 32 31 31 32 32 31 31
33 33 33 33 32 32 32 32 32 31 32 32 32 32 32 33 33 33 34 35 35 36 36 36 35 35 34 33 33 33 33 32 32 33 33 33 33 32 32 31 31 31 31 30
33 34 33 33 33 33 32 32 32 32 32 32 32 33 34 34 35 35 36 36 37 37 36 35 35 34 34 34 34 33 33 33 33 33 33 33 32 32 32 31 31 31 30 30
Wind_Direction
258 257 258 259 260 261 264 267 268 270 271 274 277 280 283 285 286 285 286 287 288 290 290 292 290 290 292 292 292 293 292 291 290 290 290 290 290 288 287 287 286 287 288 289
256 258 259 259 261 262 265 267 268 270 273 275 276 278 280 284 284 283 284 286 287 288 289 289 289 290 291 290 292 292 291 291 292 291 290 288 287 286 285 284 284 285 286 287
256 257 259 260 262 264 266 268 269 270 273 274 275 278 280 282 283 285 286 286 286 286 287 289 290 290 290 290 291 291 291 291 291 291 290 288 286 285 284 283 282 283 284 285
258 256 257 262 262 265 268 269 268 270 273 275 277 278 280 281 282 283 284 283 284 285 286 288 289 291 291 289 291 291 291 290 290 290 289 287 284 283 282 282 281 281 282 283
261 260 260 260 263 266 268 269 270 272 274 277 278 279 280 281 281 282 283 284 285 286 287 288 289 291 292 291 291 291 290 289 288 289 288 286 284 282 282 282 281 280 280 281
262 263 263 264 263 265 269 271 274 275 274 277 279 280 281 281 281 282 283 284 287 289 290 290 290 291 292 291 291 292 291 290 289 288 288 287 285 284 284 283 281 280 279 280
262 264 266 266 265 266 268 272 275 275 276 276 278 279 281 282 282 283 284 285 287 289 291 291 291 292 292 291 291 293 292 292 290 290 289 289 287 286 285 285 284 283 282 282
261 262 265 267 267 267 270 272 274 274 276 277 279 281 282 282 282 283 284 285 287 288 289 289 290 291 292 292 292 292 291 291 290 291 290 289 288 287 285 284 284 284 284 283
261 263 266 267 268 269 271 272 274 275 276 277 279 281 283 283 282 282 284 286 287 288 289 289 290 292 292 292 292 292 291 290 289 289 290 290 288 288 286 285 285 285 284 283
264 265 265 265 266 268 271 272 273 274 277 279 279 280 283 283 283 283 284 286 288 290 291 291 293 293 294 293 293 292 291 290 289 288 289 288 288 289 288 287 286 285 284 284
266 266 266 266 267 268 271 273 273 274 276 277 278 280 280 281 282 282 284 285 287 289 291 292 293 294 295 295 293 292 292 290 289 288 289 289 289 289 288 287 287 286 285 284
265 266 268 270 270 270 269 271 272 273 275 278 279 281 281 282 283 283 284 285 286 288 290 291 293 293 294 295 294 293 292 291 290 289 289 289 289 288 288 287 286 285 285 284
264 265 267 269 271 271 272 272 272 273 275 277 279 280 280 281 283 283 285 287 287 288 290 291 293 293 293 294 294 294 292 291 290 290 290 290 289 288 287 287 288 286 285 284
264 264 266 267 270 272 271 272 273 273 275 277 278 280 281 282 283 285 285 285 287 289 290 291 292 294 293 293 294 293 292 292 291 291 291 290 289 288 287 287 287 286 285 284
264 265 266 267 270 271 272 272 274 275 275 276 277 280 281 282 284 285 286 287 288 289 289 290 291 292 292 292 293 293 292 292 292 292 291 291 290 288 287 287 287 285 284 285
265 266 267 268 270 272 274 275 276 277 278 279 280 281 283 283 283 284 286 287 288 288 289 290 290 290 291 292 292 293 293 293 294 293 291 291 290 289 287 288 288 286 285 285
265 266 267 268 270 272 274 275 276 277 279 280 281 282 283 283 284 285 287 288 289 289 289 290 290 290 291 291 292 293 293 293 293 293 292 290 289 289 288 288 288 287 287 286
266 266 267 269 270 272 274 275 276 277 278 279 280 281 283 284 284 286 287 288 288 289 289 290 290 290 291 292 292 292 293 293 293 293 292 291 290 288 288 288 286 286 286 287
266 267 269 270 271 272 274 275 277 278 278 279 280 281 282 283 284 286 287 288 288 288 289 289 290 290 290 291 292 293 293 294 294 293 292 292 291 291 289 289 288 287 287 287
266 267 270 272 274 274 275 276 278 279 280 280 281 282 282 283 284 286 288 289 289 288 289 290 290 290 290 291 292 293 294 294 294 294 292 291 291 291 291 290 289 288 287 288
267 268 271 273 275 276 277 278 279 280 281 282 282 283 283 283 284 285 287 288 289 289 289 290 290 290 291 291 292 293 294 294 294 294 293 292 292 292 291 290 290 289 289 289
268 270 271 273 275 277 278 279 279 281 281 282 283 283 283 283 284 285 286 288 289 289 290 290 290 290 290 290 291 292 293 293 293 293 292 292 293 293 292 292 291 291 291 291
268 270 273 274 276 278 279 279 279 280 281 282 282 283 283 283 284 286 287 288 289 290 290 290 291 291 291 291 291 291 291 292 292 291 291 291 292 292 292 291 292 292 292 292
270 272 273 275 277 278 279 279 280 281 281 282 283 283 283 284 285 287 288 289 290 291 291 292 292 292 292 291 290 290 291 291 291 291 291 291 292 292 291 291 292 293 293 292
271 273 275 277 278 279 279 279 280 281 282 282 282 282 283 284 286 287 289 290 292 292 292 292 292 293 293 292 291 290 290 290 290 290 290 290 291 291 291 291 292 293 292 291
272 274 275 277 279 279 279 279 280 280 280 281 282 283 283 284 286 287 289 291 292 292 293 293 292 292 291 292 291 290 290 290 291 290 290 290 291 291 291 291 291 291 290 290
273 275 277 278 279 279 278 278 278 279 279 280 281 283 284 285 285 287 289 291 292 293 293 293 293 292 291 291 291 290 290 290 290 289 290 290 290 289 289 290 290 289 289 291